Weather History for Dublin, GA

Change the Weather History Date:

Tuesday, May 14, 2013

  Actual Average Record
Temperature  
Mean Temperature 61 °F -  
Max Temperature 78 °F 85 °F 95 °F (1956)
Min Temperature 44 °F 58 °F 44 °F (2013)
Degree Days  
Heating Degree Days 4    
Growing Degree Days 11 (Base 50)    
Moisture  
Dew Point 40 °F    
Average Humidity 48    
Maximum Humidity 100    
Minimum Humidity 19    
Precipitation  
Precipitation 0.00 in - - ()
Sea Level Pressure  
Sea Level Pressure 30.23 in    
Wind  
Wind Speed 2 mph (North)    
Max Wind Speed 8 mph    
Max Gust Speed -    
Visibility 10 miles    
Events      
Averages and records for this station are not official NWS values.
T = Trace of Precipitation, MM = Missing Value Source: NWS Daily Summary

Daily Weather History Graph

Daily Weather History Graph

Search for Another Location

Airport:

Trip Planner

Search our weather history database for the weather conditions in past years. The results will help you decide how hot, cold, wet, or windy it might be!

Date:

Astronomy

May. 14, 2013 Rise Set
Actual Time 6:34 AM EDT 8:22 PM EDT
Civil Twilight 6:06 AM EDT 8:50 PM EDT
Nautical Twilight 5:34 AM EDT 9:22 PM EDT
Astronomical Twilight 4:59 AM EDT 9:57 PM EDT
Moon 10:12 AM EDT (5/14) No Moon Set
Length of Visible Light 14h 43m
Length of Day
13h 48m
Waxing Crescent, 19% of the Moon is Illuminated
May 14
Waxing Crescent
May 18
First Quarter
May 25
Full
May 31
Last Quarter
Jun 8
New

Hourly Weather History & Observations

Time (EDT) Temp. Dew Point Humidity Pressure Visibility Wind Dir Wind Speed Gust Speed Precip Events Conditions
12:15 AM 51.8 °F 39.2 °F 62% 30.21 in 10.0 mi Calm Calm - N/A   Clear
12:35 AM 53.6 °F 41.0 °F 62% 30.21 in 10.0 mi Calm Calm - N/A   Clear
12:55 AM 51.8 °F 39.2 °F 62% 30.21 in 10.0 mi Calm Calm - N/A   Clear
1:15 AM 51.8 °F 41.0 °F 67% 30.21 in 10.0 mi Calm Calm - N/A   Clear
1:35 AM 55.4 °F 35.6 °F 47% 30.21 in 10.0 mi NNW 3.5 mph - N/A   Clear
1:55 AM 55.4 °F 35.6 °F 47% 30.21 in 10.0 mi NNW 3.5 mph - N/A   Clear
2:15 AM 55.4 °F 35.6 °F 47% 30.21 in 10.0 mi North 4.6 mph - N/A   Clear
2:35 AM 55.4 °F 35.6 °F 47% 30.21 in 10.0 mi North 4.6 mph - N/A   Clear
2:55 AM 55.4 °F 35.6 °F 47% 30.21 in 10.0 mi North 3.5 mph - N/A   Clear
3:15 AM 53.6 °F 35.6 °F 51% 30.21 in 10.0 mi Calm Calm - N/A   Clear
3:35 AM 51.8 °F 37.4 °F 58% 30.22 in 10.0 mi Calm Calm - N/A   Clear
3:55 AM 51.8 °F 37.4 °F 58% 30.22 in 10.0 mi Calm Calm - N/A   Clear
4:15 AM 53.6 °F 37.4 °F 54% 30.22 in 10.0 mi Calm Calm - N/A   Clear
4:35 AM 53.6 °F 37.4 °F 54% 30.22 in 10.0 mi North 3.5 mph - N/A   Clear
4:55 AM 51.8 °F 37.4 °F 58% 30.22 in 10.0 mi Calm Calm - N/A   Clear
5:15 AM 50.0 °F 37.4 °F 62% 30.22 in 10.0 mi Calm Calm - N/A   Clear
5:35 AM 46.4 °F 41.0 °F 81% 30.22 in 10.0 mi Calm Calm - N/A   Clear
5:55 AM 46.4 °F 44.6 °F 93% 30.22 in 10.0 mi Calm Calm - N/A   Clear
6:15 AM 44.6 °F 44.6 °F 100% 30.23 in 10.0 mi Calm Calm - N/A   Clear
6:35 AM 44.6 °F 44.6 °F 100% 30.24 in 10.0 mi Calm Calm - N/A   Clear
6:55 AM 44.6 °F 44.6 °F 100% 30.24 in 10.0 mi Calm Calm - N/A   Clear
7:15 AM 46.4 °F 46.4 °F 100% 30.25 in 10.0 mi Calm Calm - N/A   Clear
7:35 AM 50.0 °F 50.0 °F 100% 30.26 in 10.0 mi Calm Calm - N/A   Clear
7:55 AM 51.8 °F 50.0 °F 94% 30.27 in 10.0 mi Calm Calm - N/A   Clear
8:15 AM 55.4 °F 42.8 °F 63% 30.27 in 10.0 mi Calm Calm - N/A   Clear
8:35 AM 60.8 °F 39.2 °F 45% 30.27 in 10.0 mi Calm Calm - N/A   Unknown
8:55 AM 60.8 °F 37.4 °F 42% 30.28 in 10.0 mi Calm Calm - N/A   Unknown
9:15 AM 62.6 °F 33.8 °F 34% 30.28 in 10.0 mi ENE 4.6 mph - N/A   Unknown
9:35 AM 64.4 °F 33.8 °F 32% 30.28 in 10.0 mi East 5.8 mph - N/A   Unknown
9:55 AM 64.4 °F 33.8 °F 32% 30.29 in 10.0 mi East 8.1 mph - N/A   Clear
10:15 AM 68.0 °F 33.8 °F 28% 30.29 in 10.0 mi ESE 5.8 mph - N/A   Clear
10:35 AM 68.0 °F 32.0 °F 26% 30.30 in 10.0 mi East 5.8 mph - N/A   Clear
10:55 AM 69.8 °F 32.0 °F 25% 30.31 in 10.0 mi East 5.8 mph - N/A   Clear
11:15 AM 69.8 °F 32.0 °F 25% 30.31 in 10.0 mi SE 3.5 mph - N/A   Clear
11:35 AM 71.6 °F 33.8 °F 25% 30.31 in 10.0 mi SE 3.5 mph - N/A   Clear
11:55 AM 71.6 °F 33.8 °F 25% 30.30 in 10.0 mi ESE 5.8 mph - N/A   Scattered Clouds
12:15 PM 71.6 °F 32.0 °F 23% 30.30 in 10.0 mi North 3.5 mph - N/A   Scattered Clouds
12:35 PM 73.4 °F 32.0 °F 22% 30.30 in 10.0 mi East 4.6 mph - N/A   Clear
12:55 PM 73.4 °F 32.0 °F 22% 30.29 in 10.0 mi NNE 4.6 mph - N/A   Clear
1:15 PM 73.4 °F 32.0 °F 22% 30.29 in 10.0 mi East 3.5 mph - N/A   Clear
1:35 PM 73.4 °F 33.8 °F 23% 30.28 in 10.0 mi NNE 3.5 mph - N/A   Clear
1:55 PM 75.2 °F 33.8 °F 22% 30.27 in 10.0 mi Calm Calm - N/A   Scattered Clouds
2:15 PM 75.2 °F 32.0 °F 21% 30.27 in 10.0 mi NW 4.6 mph - N/A   Scattered Clouds
2:35 PM 77.0 °F 32.0 °F 19% 30.25 in 10.0 mi Calm Calm - N/A   Clear
2:55 PM 77.0 °F 33.8 °F 21% 30.24 in 10.0 mi West 8.1 mph - N/A   Clear
3:35 PM 77.0 °F 33.8 °F 21% 30.23 in 10.0 mi Calm Calm - N/A   Clear
3:55 PM 77.0 °F 35.6 °F 22% 30.22 in 10.0 mi West 8.1 mph - N/A   Clear
4:15 PM 78.8 °F 33.8 °F 20% 30.21 in 10.0 mi WNW 4.6 mph - N/A   Clear
4:35 PM 78.8 °F 37.4 °F 23% 30.20 in 10.0 mi West 5.8 mph - N/A   Clear
4:55 PM 78.8 °F 37.4 °F 23% 30.20 in 10.0 mi WSW 3.5 mph - N/A   Clear
5:15 PM 78.8 °F 33.8 °F 20% 30.20 in 10.0 mi Calm Calm - N/A   Clear
5:35 PM 78.8 °F 33.8 °F 20% 30.19 in 10.0 mi WNW 4.6 mph - N/A   Clear
5:55 PM 78.8 °F 35.6 °F 21% 30.19 in 10.0 mi West 5.8 mph - N/A   Clear
6:15 PM 78.8 °F 37.4 °F 23% 30.19 in 10.0 mi SW 3.5 mph - N/A   Clear
6:35 PM 78.8 °F 35.6 °F 21% 30.19 in 10.0 mi WNW 6.9 mph - N/A   Clear
6:55 PM 78.8 °F 37.4 °F 23% 30.18 in 10.0 mi WNW 4.6 mph - N/A   Clear
7:15 PM 77.0 °F 41.0 °F 28% 30.18 in 10.0 mi Calm Calm - N/A   Clear
7:35 PM 77.0 °F 41.0 °F 28% 30.18 in 10.0 mi West 3.5 mph - N/A   Clear
7:55 PM 75.2 °F 42.8 °F 31% 30.18 in 10.0 mi Calm Calm - N/A   Clear
8:15 PM 71.6 °F 46.4 °F 41% 30.18 in 10.0 mi Calm Calm - N/A   Clear
8:35 PM 68.0 °F 50.0 °F 52% 30.18 in 10.0 mi Calm Calm - N/A   Clear
8:55 PM 66.2 °F 50.0 °F 56% 30.18 in 10.0 mi Calm Calm - N/A   Clear
9:15 PM 64.4 °F 51.8 °F 64% 30.18 in 10.0 mi Calm Calm - N/A   Clear
9:35 PM 62.6 °F 51.8 °F 68% 30.18 in 10.0 mi Calm Calm - N/A   Clear
9:55 PM 62.6 °F 53.6 °F 72% 30.19 in 10.0 mi Calm Calm - N/A   Clear
10:15 PM 60.8 °F 51.8 °F 72% 30.19 in 10.0 mi Calm Calm - N/A   Clear
10:35 PM 60.8 °F 51.8 °F 72% 30.19 in 10.0 mi Calm Calm - N/A   Clear
10:55 PM 60.8 °F 51.8 °F 72% 30.20 in 10.0 mi Calm Calm - N/A   Clear
11:15 PM 59.0 °F 53.6 °F 82% 30.20 in 10.0 mi Calm Calm - N/A   Clear
11:35 PM 59.0 °F 51.8 °F 77% 30.20 in 10.0 mi Calm Calm - N/A   Clear
11:55 PM 57.2 °F 53.6 °F 88% 30.20 in 10.0 mi Calm Calm - N/A   Clear